Retour au catalogue

APRIZESAT 9

ActifCommunicationsSSO
NORAD 40018·PAYLOAD·🇺🇸 United States

Lancé Jun 19, 2014 depuis Dombarovsky

Loading…

Prochains Passages (prochaines 24 heures)

TLE

FraisSource: Space-Track

Époque: Sep 14, 2026, 07:44 UTC

1 40018U 14033J   26257.32273912  .00000416  00000-0  68787-4 0  9996
2 40018  97.9187  28.4083 0064623 273.8477  85.5345 14.74304826656691

Suivez APRIZESAT 9 en temps réel avec AllMySat

Download on the App Store